Location: Unspecified
(35.6961°N, 0.0000°E)
Time: 09:08:38
(UTC+00:00)

Hubble Space Telescope - Pass Details

Date: 25 April 2019
Orbit: 536 x 540 km, 28.5° (Epoch: 22 May)

Event Time Altitude Azimuth Distance (km) Brightness Sun altitude
Exits shadow 04:33:51 10° 226° (SW) 1,808 2.9 -8.7°
Reaches altitude 10° 04:33:56 10° 225° (SW) 1,785 2.8 -8.7°
Maximum altitude 04:37:19 25° 170° (S) 1,114 2.3 -8.1°
Drops below altitude 10° 04:40:43 10° 115° (ESE) 1,787 4.1 -7.5°
Sets 04:43:16 0° 101° (ESE) 2,678 5.4 -7.0°
